WD6FGE Weather Reports


Display with metric or nautical units.
time (UTC)temp
F
wind
direction
speed
MPH
gust
MPH
rain 1hr
in
rain 24hr
in
rain mn
in
humidity
%
barometer
mb
20190617072926 60 278 0.0 0.0 0.00 0.00 0.00 70 1007.3
20190617071911 61 278 0.0 2.0 0.00 0.00 0.00 72 1007.2
20190617070902 60 278 0.0 2.0 0.00 0.00 0.00 69 1007.2
20190617065908 61 320 0.0 0.0 0.00 0.00 0.00 68 1007.1
20190617064839 61 320 0.0 0.0 0.00 0.00 0.00 67 1007.1
20190617063837 61 320 0.0 1.0 0.00 0.00 0.00 65 1006.8
20190617062830 62 320 0.0 2.0 0.00 0.00 0.00 63 1006.8
20190617061757 63 320 0.0 2.0 0.00 0.00 0.00 62 1006.6
20190617060751 64 320 0.0 3.0 0.00 0.00 0.00 61 1006.5
20190617055724 64 320 0.0 2.0 0.00 0.00 0.00 60 1006.4
20190617054738 65 320 0.0 1.0 0.00 0.00 0.00 59 1006.3
20190617053714 65 320 0.0 0.0 0.00 0.00 0.00 58 1006.2
20190617052643 66 320 1.0 1.0 0.00 0.00 0.00 57 1006.0
20190617051627 67 338 0.0 1.0 0.00 0.00 0.00 55 1005.9
20190617050554 68 341 0.0 1.0 0.00 0.00 0.00 54 1005.6
20190617045617 69 341 2.0 4.0 0.00 0.00 0.00 51 1005.5
20190617044641 70 302 0.0 2.0 0.00 0.00 0.00 53 1005.1
20190617043633 70 302 1.0 2.0 0.00 0.00 0.00 51 1004.9
20190617042602 71 302 0.0 0.0 0.00 0.00 0.00 50 1004.8
20190617041549 73 302 0.0 0.0 0.00 0.00 0.00 48 1004.8
20190617040526 73 302 0.0 0.0 0.00 0.00 0.00 46 1004.8
20190617035453 74 302 0.0 0.0 0.00 0.00 0.00 45 1004.6
20190617034434 75 302 0.0 5.0 0.00 0.00 0.00 45 1004.6
20190617033421 76 302 1.0 5.0 0.00 0.00 0.00 40 1004.8
20190617032418 76 253 0.0 1.0 0.00 0.00 0.00 40 1004.4
20190617031425 77 244 0.0 1.0 0.00 0.00 0.00 38 1004.3
20190617030425 79 240 0.0 1.0 0.00 0.00 0.00 37 1004.2
20190617025352 79 240 0.0 1.0 0.00 0.00 0.00 34 1004.0
20190617024328 80 234 1.0 4.0 0.00 0.00 0.00 35 1004.1
20190617023332 81 215 1.0 5.0 0.00 0.00 0.00 33 1004.1
20190617022315 82 232 1.0 5.0 0.00 0.00 0.00 30 1004.1
20190617021309 83 275 1.0 11.0 0.00 0.00 0.00 30 1004.0
20190617020302 85 274 2.0 11.0 0.00 0.00 0.00 29 1004.0
20190617015258 87 286 2.0 6.0 0.00 0.00 0.00 30 1004.0
20190617014243 87 179 2.0 6.0 0.00 0.00 0.00 28 1003.8
20190617013212 88 184 2.0 6.0 0.00 0.00 0.00 28 1003.8
20190617012142 88 182 2.0 5.0 0.00 0.00 0.00 26 1003.8
20190617011207 89 181 1.0 5.0 0.00 0.00 0.00 26 1003.7
20190617010212 89 201 2.0 5.0 0.00 0.00 0.00 24 1003.8
20190617005213 90 190 2.0 5.0 0.00 0.00 0.00 23 1003.9
20190617004233 91 196 1.0 4.0 0.00 0.00 0.00 22 1004.0
20190617003224 91 179 1.0 4.0 0.00 0.00 0.00 24 1004.0
20190617002222 90 231 2.0 5.0 0.00 0.00 0.00 24 1004.1
20190617001212 90 129 3.0 5.0 0.00 0.00 0.00 23 1004.1
20190617000228 90 142 1.0 6.0 0.00 0.00 0.00 23 1004.2
20190616235232 90 183 3.0 6.0 0.00 0.00 0.00 25 1004.3
20190616234257 89 193 2.0 6.0 0.00 0.00 0.00 24 1004.4
20190616233300 89 188 1.0 3.0 0.00 0.00 0.00 25 1004.5
20190616232304 87 204 0.0 2.0 0.00 0.00 0.00 32 1004.6
20190616231234 87 146 0.0 1.0 0.00 0.00 0.00 33 1004.7
20190616230220 88 146 0.0 2.0 0.00 0.00 0.00 26 1004.8
20190616225225 89 146 1.0 5.0 0.00 0.00 0.00 24 1004.9
20190616224225 90 117 2.0 5.0 0.00 0.00 0.00 22 1005.1
20190616223215 90 57 1.0 4.0 0.00 0.00 0.00 21 1005.1
20190616222213 90 38 1.0 4.0 0.00 0.00 0.00 20 1005.3
20190616221142 90 0 1.0 5.0 0.00 0.00 0.00 21 1005.4
20190616220125 90 325 1.0 5.0 0.00 0.00 0.00 21 1005.4
20190616215123 90 282 1.0 4.0 0.00 0.00 0.00 24 1005.5
20190616214130 90 327 1.0 5.0 0.00 0.00 0.00 24 1005.6
20190616213056 89 340 1.0 5.0 0.00 0.00 0.00 23 1005.7
20190616212040 89 234 2.0 7.0 0.00 0.00 0.00 24 1005.7
20190616211033 88 277 2.0 7.0 0.00 0.00 0.00 25 1005.9
20190616210011 87 32 2.0 6.0 0.00 0.00 0.00 27 1006.0
20190616205022 87 225 2.0 6.0 0.00 0.00 0.00 26 1006.2
20190616204036 87 259 2.0 6.0 0.00 0.00 0.00 26 1006.3
20190616203031 86 320 1.0 5.0 0.00 0.00 0.00 29 1006.5
20190616202005 87 253 2.0 6.0 0.00 0.00 0.00 30 1006.6
20190616201013 86 29 1.0 6.0 0.00 0.00 0.00 27 1006.8
20190616200037 86 283 2.0 6.0 0.00 0.00 0.00 32 1006.9
20190616195013 85 313 1.0 8.0 0.00 0.00 0.00 31 1007.0
20190616193952 84 319 2.0 8.0 0.00 0.00 0.00 33 1007.1
20190616193010 83 345 2.0 4.0 0.00 0.00 0.00 33 1007.3
20190616192006 83 146 1.0 5.0 0.00 0.00 0.00 34 1007.4
20190616191009 82 10 1.0 5.0 0.00 0.00 0.00 38 1007.4
20190616185949 83 18 1.0 3.0 0.00 0.00 0.00 36 1007.6
20190616184946 82 293 1.0 6.0 0.00 0.00 0.00 38 1007.7
20190616183926 81 342 2.0 6.0 0.00 0.00 0.00 41 1007.8
20190616182942 80 337 1.0 8.0 0.00 0.00 0.00 43 1007.9
20190616181922 79 289 2.0 8.0 0.00 0.00 0.00 45 1008.0
20190616180928 79 309 2.0 6.0 0.00 0.00 0.00 42 1008.0
20190616175925 78 355 0.0 0.0 0.00 0.00 0.00 45 1008.1
20190616174853 77 22 1.0 6.0 0.00 0.00 0.00 48 1008.2
20190616173902 77 15 2.0 6.0 0.00 0.00 0.00 49 1008.3
20190616172845 76 24 2.0 6.0 0.00 0.00 0.00 53 1008.4
20190616171840 76 355 1.0 3.0 0.00 0.00 0.00 55 1008.5
20190616170848 75 297 1.0 5.0 0.00 0.00 0.00 58 1008.6
20190616165908 74 294 1.0 5.0 0.00 0.00 0.00 59 1008.7
20190616164852 73 5 1.0 6.0 0.00 0.00 0.00 60 1008.8
20190616163849 73 298 2.0 6.0 0.00 0.00 0.00 62 1008.9
20190616162856 72 332 0.0 4.0 0.00 0.00 0.00 65 1009.1
20190616161846 70 130 1.0 3.0 0.00 0.00 0.00 68 1009.1
20190616160848 69 188 1.0 3.0 0.00 0.00 0.00 71 1009.3
20190616155905 68 100 0.0 0.0 0.00 0.00 0.00 72 1009.4
20190616154841 67 94 2.0 4.0 0.00 0.00 0.00 74 1009.5
20190616153832 66 121 0.0 3.0 0.00 0.00 0.00 76 1009.5
20190616152810 64 146 1.0 3.0 0.00 0.00 0.00 78 1009.6
20190616151824 64 125 1.0 2.0 0.00 0.00 0.00 78 1009.7
20190616150819 63 162 0.0 2.0 0.00 0.00 0.00 82 1009.7
20190616145751 61 181 0.0 0.0 0.00 0.00 0.00 87 1009.8
20190616144753 60 259 0.0 0.0 0.00 0.00 0.00 89 1009.8
20190616143815 59 260 0.0 1.0 0.00 0.00 0.00 90 1009.8
20190616142800 57 260 0.0 0.0 0.00 0.00 0.00 91 1009.8
20190616141750 56 260 0.0 0.0 0.00 0.00 0.00 91 1009.8
20190616140746 54 260 0.0 0.0 0.00 0.00 0.00 91 1009.8
20190616135751 54 260 0.0 0.0 0.00 0.00 0.00 90 1009.8
20190616134718 53 260 0.0 0.0 0.00 0.00 0.00 91 1009.7
20190616133743 53 260 0.0 0.0 0.00 0.00 0.00 90 1009.7
20190616132716 53 260 0.0 0.0 0.00 0.00 0.00 90 1009.6
20190616131650 53 260 0.0 0.0 0.00 0.00 0.00 90 1009.5
20190616130641 52 260 0.0 0.0 0.00 0.00 0.00 90 1009.4
20190616125648 52 260 0.0 0.0 0.00 0.00 0.00 90 1009.3
20190616124638 52 260 0.0 0.0 0.00 0.00 0.00 90 1009.2
20190616123614 52 260 0.0 0.0 0.00 0.00 0.00 90 1009.1
20190616122616 53 260 0.0 0.0 0.00 0.00 0.00 90 1009.0
20190616121544 53 260 0.0 0.0 0.00 0.00 0.00 90 1009.0
20190616120547 53 260 0.0 0.0 0.00 0.00 0.00 90 1008.9
20190616115516 53 260 0.0 0.0 0.00 0.00 0.00 90 1008.9
20190616114457 54 260 0.0 0.0 0.00 0.00 0.00 90 1008.8
20190616113453 54 260 0.0 0.0 0.00 0.00 0.00 90 1008.7
20190616112500 54 260 0.0 0.0 0.00 0.00 0.00 89 1008.7
20190616111454 54 260 0.0 0.0 0.00 0.00 0.00 89 1008.6
20190616110451 54 260 0.0 0.0 0.00 0.00 0.00 89 1008.6
20190616105433 55 260 0.0 0.0 0.00 0.00 0.00 89 1008.6
20190616104435 55 260 0.0 0.0 0.00 0.00 0.00 89 1008.6
20190616103421 55 260 0.0 0.0 0.00 0.00 0.00 89 1008.6
20190616102400 56 209 0.0 0.0 0.00 0.00 0.00 89 1008.5
20190616101420 56 209 0.0 0.0 0.00 0.00 0.00 88 1008.5
20190616100424 56 209 0.0 0.0 0.00 0.00 0.00 88 1008.4
20190616095448 56 209 0.0 0.0 0.00 0.00 0.00 88 1008.3
20190616094459 57 205 0.0 0.0 0.00 0.00 0.00 89 1008.3
20190616093454 57 205 0.0 0.0 0.00 0.00 0.00 88 1008.4
20190616092458 57 205 0.0 0.0 0.00 0.00 0.00 88 1008.3
20190616091448 57 126 0.0 1.0 0.00 0.00 0.00 87 1008.3
20190616090422 57 126 0.0 0.0 0.00 0.00 0.00 87 1008.5
20190616085349 57 126 0.0 0.0 0.00 0.00 0.00 87 1008.6
20190616084315 58 126 0.0 0.0 0.00 0.00 0.00 87 1008.5
20190616083249 58 126 0.0 0.0 0.00 0.00 0.00 86 1008.5
20190616082226 58 132 0.0 0.0 0.00 0.00 0.00 86 1008.5
20190616081246 59 131 0.0 0.0 0.00 0.00 0.00 86 1008.5
20190616080213 59 131 0.0 0.0 0.00 0.00 0.00 85 1008.5
20190616075221 60 131 0.0 0.0 0.00 0.00 0.00 85 1008.4
20190616074223 60 131 0.0 0.0 0.00 0.00 0.00 84 1008.3